sat.trackr.live / text

‹ back to catalog

ONEWEB-0021

NORAD 45134 · 2020-008D

PAYLOAD ACTIVE UNKNOWN

§ Identity

Operator
Country
UK
Launch date
2020-02-06
Launch site
TYMSC
Launch vehicle
Mass (kg)
RCS (m²)

Purposes: comms

External: N2YO · Heavens-Above · Gunter

§ Orbital elements

Epoch: 2026-09-20T03:01:19.754112Z

Period
109.89 min
Inclination
87.8902°
Eccentricity
0.0001771
Mean motion
13.10375759 rev/d
Perigee alt
1,220.4 km
Apogee alt
1,223.1 km
Semi-major
7,599.8 km
B*
-1.5522e-3
RAAN
17.3798°
Arg perigee
97.7408°
Mean anomaly
262.3921°
Rev number
32,108

§ Raw data

ONEWEB-00211 45134U 20008D   26263.12592308 -.00000529  00000+0 -15522-2 0  99902 45134  87.8902  17.3798 0001771  97.7408 262.3921 13.10375759321089

JSON: /api/v1/satellites/45134 · /tle

For live sub-satellite position, see the globe view (requires WebGL).

§ Visibility from observer

Set your observer location to see the next 7 days of passes ≥ 10°. The values pass through the URL so the page stays shareable.

No JS? Fill the form by hand. The geolocation button needs JavaScript.